TimeCDT,TemperatureF,Dew PointF,Humidity,Sea Level PressureIn,VisibilityMPH,Wind Direction,Wind SpeedMPH,Gust SpeedMPH,PrecipitationIn,Events,Conditions,WindDirDegrees,DateUTC
1:52 AM,55.0,55.0,100,29.91,0.2,NNE,3.5,-,N/A,Fog,Fog,30,2012-10-23 06:52:00
2:07 AM,55.4,55.4,100,29.90,0.5,NNE,4.6,-,N/A,Fog,Fog,20,2012-10-23 07:07:00
2:47 AM,55.4,55.4,100,29.90,1.5,Calm,Calm,-,N/A,,Overcast,0,2012-10-23 07:47:00
2:52 AM,55.0,55.0,100,29.89,2.0,Calm,Calm,-,N/A,,Overcast,0,2012-10-23 07:52:00
3:21 AM,53.6,53.6,100,29.91,2.5,Calm,Calm,-,N/A,,Overcast,0,2012-10-23 08:21:00
3:52 AM,54.0,54.0,100,29.89,2.0,NE,4.6,-,N/A,,Overcast,40,2012-10-23 08:52:00
3:55 AM,53.6,53.6,100,29.90,1.8,NNE,4.6,-,N/A,,Overcast,30,2012-10-23 08:55:00
4:06 AM,53.6,53.6,100,29.91,1.8,Calm,Calm,-,N/A,,Overcast,0,2012-10-23 09:06:00
4:14 AM,53.6,53.6,100,29.91,2.0,Calm,Calm,-,N/A,,Overcast,0,2012-10-23 09:14:00
4:33 AM,53.6,53.6,100,29.91,1.8,Calm,Calm,-,N/A,,Overcast,0,2012-10-23 09:33:00
4:52 AM,54.0,54.0,100,29.91,1.5,Calm,Calm,-,N/A,,Overcast,0,2012-10-23 09:52:00
5:41 AM,53.6,53.6,100,29.91,0.5,NNE,5.8,-,N/A,Fog,Fog,30,2012-10-23 10:41:00
5:52 AM,53.1,53.1,100,29.90,0.5,NE,5.8,-,N/A,Fog,Fog,50,2012-10-23 10:52:00
6:05 AM,53.6,53.6,100,29.90,0.2,NE,4.6,-,N/A,Fog,Fog,40,2012-10-23 11:05:00
6:52 AM,53.1,53.1,100,29.91,0.2,Calm,Calm,-,N/A,Fog,Fog,0,2012-10-23 11:52:00
8:52 AM,53.1,53.1,100,29.95,0.2,ENE,3.5,-,N/A,Fog,Fog,60,2012-10-23 13:52:00
9:11 AM,53.6,53.6,100,29.95,0.5,Calm,Calm,-,0.00,Fog,Fog,0,2012-10-23 14:11:00
10:52 AM,55.9,55.9,100,29.93,1.0,SE,3.5,-,N/A,,Overcast,130,2012-10-23 15:52:00
11:06 AM,55.4,55.4,100,29.93,0.8,Calm,Calm,-,N/A,,Overcast,0,2012-10-23 16:06:00
11:17 AM,55.4,55.4,100,29.92,1.0,Calm,Calm,-,N/A,,Overcast,0,2012-10-23 16:17:00
11:52 AM,57.9,57.9,100,29.91,1.5,Calm,Calm,-,N/A,,Overcast,0,2012-10-23 16:52:00
11:59 AM,57.2,57.2,100,29.91,2.0,Calm,Calm,-,N/A,,Overcast,0,2012-10-23 16:59:00
12:07 PM,57.2,57.2,100,29.91,2.0,Calm,Calm,-,0.01,Rain-Thunderstorm,Light Rain,0,2012-10-23 17:07:00
12:21 PM,57.2,57.2,100,29.91,0.2,Calm,Calm,-,0.32,Fog-Rain-Thunderstorm,Heavy Thunderstorms and Rain,0,2012-10-23 17:21:00
12:33 PM,57.2,57.2,100,29.90,1.0,ESE,3.5,-,0.39,Rain-Thunderstorm,Light Thunderstorms and Rain,120,2012-10-23 17:33:00
12:52 PM,59.0,57.9,96,29.90,1.0,Calm,Calm,-,0.41,Rain-Thunderstorm,Light Rain,0,2012-10-23 17:52:00
1:13 PM,59.0,59.0,100,29.89,2.5,Calm,Calm,-,0.00,Thunderstorm,Overcast,0,2012-10-23 18:13:00
1:20 PM,59.0,59.0,100,29.89,2.0,Calm,Calm,-,0.00,,Overcast,0,2012-10-23 18:20:00
1:35 PM,59.0,59.0,100,29.89,2.0,Calm,Calm,-,0.00,,Overcast,0,2012-10-23 18:35:00
1:52 PM,59.0,59.0,100,29.88,2.0,Calm,Calm,-,0.00,,Overcast,0,2012-10-23 18:52:00
2:09 PM,60.8,59.0,94,29.88,2.5,Calm,Calm,-,N/A,,Overcast,0,2012-10-23 19:09:00
2:48 PM,60.8,59.0,94,29.87,1.8,East,3.5,-,0.00,Rain,Light Rain,100,2012-10-23 19:48:00
2:52 PM,60.1,59.0,96,29.87,1.5,Calm,Calm,-,0.00,Rain,Light Rain,0,2012-10-23 19:52:00
3:01 PM,60.8,59.0,94,29.87,2.0,Calm,Calm,-,0.01,Rain,Light Rain,0,2012-10-23 20:01:00
3:13 PM,59.0,59.0,100,29.87,2.0,ESE,4.6,-,0.01,Rain,Light Rain,110,2012-10-23 20:13:00
3:52 PM,59.0,59.0,100,29.87,2.0,Calm,Calm,-,0.01,,Overcast,0,2012-10-23 20:52:00
4:05 PM,59.0,59.0,100,29.88,1.8,Calm,Calm,-,N/A,,Overcast,0,2012-10-23 21:05:00
4:33 PM,60.8,59.0,94,29.88,1.8,ESE,3.5,-,N/A,,Overcast,120,2012-10-23 21:33:00
4:42 PM,60.8,60.8,100,29.88,2.0,SSE,3.5,-,N/A,,Overcast,150,2012-10-23 21:42:00
4:52 PM,62.1,61.0,96,29.87,2.5,SE,4.6,-,N/A,,Overcast,140,2012-10-23 21:52:00
5:23 PM,62.6,62.6,100,29.88,3.0,Calm,Calm,-,N/A,,Overcast,0,2012-10-23 22:23:00
5:31 PM,62.6,60.8,94,29.88,2.5,Calm,Calm,-,N/A,,Overcast,0,2012-10-23 22:31:00
5:52 PM,62.1,61.0,96,29.88,2.0,NE,3.5,-,N/A,,Overcast,50,2012-10-23 22:52:00
6:12 PM,62.6,60.8,94,29.89,2.5,East,3.5,-,N/A,,Overcast,90,2012-10-23 23:12:00
6:52 PM,60.1,60.1,100,29.88,2.5,ESE,4.6,-,N/A,,Overcast,120,2012-10-23 23:52:00
7:20 PM,59.0,59.0,100,29.90,1.8,SE,3.5,-,N/A,,Mostly Cloudy,140,2012-10-24 00:20:00
7:36 PM,59.0,57.2,94,29.90,0.5,Calm,Calm,-,N/A,Fog,Fog,0,2012-10-24 00:36:00
7:52 PM,57.9,57.9,100,29.90,0.2,Calm,Calm,-,N/A,Fog,Fog,0,2012-10-24 00:52:00
8:04 PM,55.4,55.4,100,29.90,0.2,Calm,Calm,-,N/A,Fog,Fog,0,2012-10-24 01:04:00
8:36 PM,57.2,57.2,100,29.90,0.5,SSE,4.6,-,N/A,Fog,Fog,160,2012-10-24 01:36:00
8:42 PM,59.0,59.0,100,29.91,2.5,South,3.5,-,N/A,,Clear,170,2012-10-24 01:42:00
8:50 PM,57.2,57.2,100,29.91,0.8,Calm,Calm,-,N/A,,Clear,0,2012-10-24 01:50:00
8:52 PM,57.0,57.0,100,29.91,0.8,Calm,Calm,-,N/A,,Clear,0,2012-10-24 01:52:00
9:04 PM,55.4,55.4,100,29.91,0.2,South,3.5,-,N/A,Fog,Fog,170,2012-10-24 02:04:00
9:13 PM,57.2,55.4,94,29.91,0.2,Calm,Calm,-,N/A,Fog,Fog,0,2012-10-24 02:13:00
9:39 PM,55.4,55.4,100,29.91,1.0,SSE,4.6,-,N/A,,Mist,160,2012-10-24 02:39:00
9:42 PM,57.2,57.2,100,29.91,2.5,South,4.6,-,N/A,,Scattered Clouds,170,2012-10-24 02:42:00
9:50 PM,57.2,57.2,100,29.91,3.0,South,4.6,-,N/A,,Partly Cloudy,170,2012-10-24 02:50:00
9:52 PM,57.0,57.0,100,29.91,3.0,South,4.6,-,N/A,,Partly Cloudy,170,2012-10-24 02:52:00
10:17 PM,57.2,57.2,100,29.91,1.2,Calm,Calm,-,N/A,,Clear,0,2012-10-24 03:17:00
10:26 PM,57.2,57.2,100,29.91,0.5,SSE,3.5,-,N/A,Fog,Fog,150,2012-10-24 03:26:00
10:39 PM,55.4,55.4,100,29.91,0.2,Calm,Calm,-,N/A,Fog,Fog,0,2012-10-24 03:39:00
10:52 PM,57.9,57.9,100,29.91,1.0,SSE,4.6,-,N/A,,Overcast,160,2012-10-24 03:52:00
11:52 PM,61.0,57.9,90,29.90,2.5,SSE,5.8,-,N/A,,Mostly Cloudy,160,2012-10-24 04:52:00